KY4OP-13 Weather Reports


time (UTC)temp
C
wind
direction
speed
KPH
gust
KPH
rain 1hr
cm
rain 24hr
cm
rain mn
cm
humidity
%
barometer
mb
20260504204816 24 264 6.4 9.7 0.00 0.00 0.00 40 1011.8
20260504204314 24 222 8.0 9.7 0.00 0.00 0.00 38 1012.1
20260504203813 25 230 3.2 4.8 0.00 0.00 0.00 38 1012.2
20260504203310 25 127 1.6 3.2 0.00 0.00 0.00 39 1012.4
20260504202810 24 241 6.4 11.3 0.00 0.00 0.00 38 1012.4
20260504202308 24 210 8.0 12.9 0.00 0.00 0.00 38 1012.7
20260504201804 24 252 3.2 12.9 0.00 0.00 0.00 42 1012.6
20260504201301 24 236 1.6 9.7 0.00 0.00 0.00 39 1012.6
20260504200759 23 228 14.5 25.7 0.00 0.00 0.00 37 1012.6
20260504200255 24 230 11.3 22.5 0.00 0.00 0.00 38 1012.5
20260504195752 23 270 14.5 22.5 0.00 0.00 0.00 39 1012.5
20260504195247 23 248 12.9 20.9 0.00 0.00 0.00 38 1012.5
20260504194745 23 246 14.5 16.1 0.00 0.00 0.00 36 1012.7
20260504194241 23 216 17.7 22.5 0.00 0.00 0.00 39 1012.8
20260504193737 23 270 11.3 20.9 0.00 0.00 0.00 37 1012.8
20260504193235 23 233 14.5 22.5 0.00 0.00 0.00 36 1012.9
20260504192733 23 219 11.3 12.9 0.00 0.00 0.00 36 1012.8
20260504192231 23 144 11.3 16.1 0.00 0.00 0.00 37 1013.0
20260504191729 22 242 3.2 20.9 0.00 0.00 0.00 39 1013.1
20260504191226 23 244 12.9 27.4 0.00 0.00 0.00 37 1013.1
20260504190721 24 222 12.9 17.7 0.00 0.00 0.00 37 1013.2
20260504190218 24 252 16.1 20.9 0.00 0.00 0.00 36 1013.1
20260504185714 24 224 8.0 20.9 0.00 0.00 0.00 37 1013.2
20260504185211 25 238 9.7 14.5 0.00 0.00 0.00 36 1013.1
20260504184707 24 176 6.4 14.5 0.00 0.00 0.00 37 1013.1
20260504184203 24 211 17.7 22.5 0.00 0.00 0.00 36 1013.2
20260504183659 24 124 1.6 14.5 0.00 0.00 0.00 38 1013.4
20260504183156 24 265 6.4 16.1 0.00 0.00 0.00 36 1013.4
20260504182654 24 200 9.7 11.3 0.00 0.00 0.00 38 1013.6
20260504182151 23 228 9.7 14.5 0.00 0.00 0.00 36 1013.5
20260504181649 23 226 9.7 12.9 0.00 0.00 0.00 39 1013.9
20260504181146 23 200 9.7 17.7 0.00 0.00 0.00 37 1013.8
20260504180645 23 226 8.0 16.1 0.00 0.00 0.00 36 1013.9
20260504180143 23 240 9.7 14.5 0.00 0.00 0.00 37 1013.8
20260504175640 23 232 9.7 11.3 0.00 0.00 0.00 35 1013.9
20260504175137 24 194 11.3 14.5 0.00 0.00 0.00 35 1014.1
20260504174636 23 246 6.4 9.7 0.00 0.00 0.00 39 1014.2
20260504174131 23 182 6.4 12.9 0.00 0.00 0.00 37 1014.5
20260504173629 22 248 8.0 12.9 0.00 0.00 0.00 39 1014.3
20260504173126 23 218 14.5 17.7 0.00 0.00 0.00 36 1014.3
20260504172622 23 158 8.0 12.9 0.00 0.00 0.00 40 1014.3
20260504172119 22 227 3.2 4.8 0.00 0.00 0.00 37 1014.3
20260504171615 23 186 11.3 17.7 0.00 0.00 0.00 37 1014.6
20260504171113 23 233 4.8 9.7 0.00 0.00 0.00 39 1014.6
20260504170608 22 230 6.4 11.3 0.00 0.00 0.00 39 1014.7
20260504170107 22 204 8.0 11.3 0.00 0.00 0.00 39 1014.8
20260504150952 20 218 4.8 12.9 0.00 0.00 0.00 41 1016.2
20260504150449 20 223 4.8 14.5 0.00 0.00 0.00 44 1016.2
20260504140916 17 224 3.2 11.3 0.00 0.00 0.00 49 1016.2
20260504140411 17 213 11.3 16.1 0.00 0.00 0.00 48 1016.3
20260504130337 13 218 8.0 12.9 0.00 0.00 0.00 56 1017.0
20260504120300 9 215 1.6 3.2 0.00 0.00 0.00 73 1017.2
20260504110224 5 281 0.0 0.0 0.00 0.00 0.00 90 1017.5
20260504100143 5 280 0.0 0.0 0.00 0.00 0.00 88 1017.1
20260504090105 6 280 0.0 0.0 0.00 0.00 0.00 81 1017.4
20260504081535 6 281 0.0 0.0 0.00 0.00 0.00 80 1017.2
20260504081031 6 281 0.0 0.0 0.00 0.00 0.00 81 1017.4
20260504080528 6 281 0.0 0.0 0.00 0.00 0.00 80 1017.3
20260504050340 7 40 0.0 0.0 0.00 0.00 0.00 72 1017.8
20260504045837 7 40 0.0 1.6 0.00 0.00 0.00 72 1017.5
20260504045332 7 41 0.0 1.6 0.00 0.00 0.00 75 1017.5
20260504044830 6 41 0.0 0.0 0.00 0.00 0.00 76 1017.7
20260504044327 6 41 0.0 0.0 0.00 0.00 0.00 76 1017.8
20260504043824 6 41 0.0 0.0 0.00 0.00 0.00 77 1017.7
20260504043321 6 41 0.0 0.0 0.00 0.00 0.00 77 1017.5
20260504042819 6 41 0.0 0.0 0.00 0.00 0.00 77 1017.7
20260504042315 6 41 0.0 0.0 0.00 0.00 0.00 77 1017.8
20260504041811 6 41 0.0 0.0 0.00 0.00 0.00 77 1017.5
20260504041307 6 41 0.0 0.0 0.00 0.00 0.00 77 1017.7
20260504040804 6 41 0.0 0.0 0.00 0.00 0.00 77 1017.5
20260504040301 6 41 0.0 0.0 0.00 0.00 0.00 77 1017.7
20260504035757 6 41 0.0 0.0 0.00 0.00 0.00 77 1017.4
20260504035254 6 41 0.0 0.0 0.00 0.00 0.00 76 1017.5
20260504034751 6 41 0.0 0.0 0.00 0.00 0.00 77 1017.4
20260504034249 6 41 0.0 0.0 0.00 0.00 0.00 76 1017.5
20260504033746 6 41 0.0 0.0 0.00 0.00 0.00 77 1017.5
20260504033244 6 41 0.0 0.0 0.00 0.00 0.00 77 1017.4
20260504032740 6 41 0.0 0.0 0.00 0.00 0.00 76 1017.7
20260504032237 6 41 0.0 0.0 0.00 0.00 0.00 75 1017.5
20260504031734 6 41 0.0 0.0 0.00 0.00 0.00 75 1017.8
20260504031232 6 41 0.0 0.0 0.00 0.00 0.00 73 1017.7
20260504030727 6 41 0.0 0.0 0.00 0.00 0.00 73 1017.4
20260504030225 6 41 0.0 0.0 0.00 0.00 0.00 74 1017.5
20260504025721 6 41 0.0 0.0 0.00 0.00 0.00 72 1017.5
20260504025218 5 41 0.0 0.0 0.00 0.00 0.00 72 1017.8
20260504024715 5 41 0.0 0.0 0.00 0.00 0.00 71 1017.5
20260504024211 5 41 0.0 0.0 0.00 0.00 0.00 70 1017.7
20260504023708 6 41 0.0 0.0 0.00 0.00 0.00 69 1017.7
20260504023204 6 41 0.0 0.0 0.00 0.00 0.00 68 1017.5
20260504022701 6 41 0.0 0.0 0.00 0.00 0.00 68 1017.7
20260504022156 6 41 0.0 0.0 0.00 0.00 0.00 66 1017.5
20260504021655 6 41 0.0 0.0 0.00 0.00 0.00 67 1017.7
20260504021150 6 41 0.0 0.0 0.00 0.00 0.00 65 1017.4
20260504020648 6 41 0.0 0.0 0.00 0.00 0.00 64 1017.3
20260504020143 6 41 0.0 0.0 0.00 0.00 0.00 64 1017.4
20260504015641 7 41 0.0 0.0 0.00 0.00 0.00 62 1017.4
20260504015137 7 41 0.0 0.0 0.00 0.00 0.00 60 1017.2
20260504014632 7 41 0.0 0.0 0.00 0.00 0.00 60 1017.3
20260504014130 7 41 0.0 0.0 0.00 0.00 0.00 59 1017.1
20260504013628 8 41 0.0 0.0 0.00 0.00 0.00 60 1017.1
20260504013124 8 41 0.0 0.0 0.00 0.00 0.00 59 1017.1
20260504012621 8 41 0.0 0.0 0.00 0.00 0.00 60 1017.0
20260504012120 8 41 0.0 0.0 0.00 0.00 0.00 59 1017.1
20260504011616 8 41 0.0 0.0 0.00 0.00 0.00 54 1016.9
20260504011112 8 41 0.0 0.0 0.00 0.00 0.00 55 1017.2
20260504010608 9 41 0.0 0.0 0.00 0.00 0.00 55 1017.0
20260504010104 9 41 0.0 0.0 0.00 0.00 0.00 50 1017.0
20260504005601 10 41 0.0 0.0 0.00 0.00 0.00 53 1016.8
20260504005058 10 41 0.0 1.6 0.00 0.00 0.00 53 1016.7
20260504004556 10 41 0.0 0.0 0.00 0.00 0.00 50 1016.9
20260504004053 10 41 0.0 0.0 0.00 0.00 0.00 52 1016.8
20260504003549 10 41 1.6 1.6 0.00 0.00 0.00 50 1016.7
20260504003046 10 41 0.0 0.0 0.00 0.00 0.00 51 1016.6
20260504002542 10 41 0.0 0.0 0.00 0.00 0.00 50 1016.6
20260504002040 11 41 0.0 0.0 0.00 0.00 0.00 50 1016.4
20260504001538 11 41 0.0 0.0 0.00 0.00 0.00 50 1016.5
20260504001034 11 41 0.0 0.0 0.00 0.00 0.00 48 1016.5
20260504000531 12 41 0.0 1.6 0.00 0.00 0.00 46 1016.7
20260504000028 12 41 1.6 1.6 0.00 0.00 0.00 44 1016.6
20260503235527 12 41 1.6 1.6 0.00 0.00 0.00 43 1016.3
20260503235023 13 41 0.0 1.6 0.00 0.00 0.00 44 1016.4
20260503234521 13 41 1.6 1.6 0.00 0.00 0.00 42 1016.5
20260503234019 13 40 0.0 0.0 0.00 0.00 0.00 41 1016.5
20260503233515 14 40 0.0 0.0 0.00 0.00 0.00 39 1016.5
20260503233011 14 40 0.0 0.0 0.00 0.00 0.00 39 1016.4
20260503232508 15 40 0.0 0.0 0.00 0.00 0.00 36 1016.2
20260503232006 16 40 0.0 1.6 0.00 0.00 0.00 36 1016.1
20260503231504 16 39 0.0 1.6 0.00 0.00 0.00 30 1016.3
20260503231000 17 40 0.0 1.6 0.00 0.00 0.00 33 1016.3
20260503230456 17 40 0.0 3.2 0.00 0.00 0.00 30 1016.3
20260503225954 16 55 0.0 1.6 0.00 0.00 0.00 28 1016.3
20260503225451 17 55 0.0 0.0 0.00 0.00 0.00 28 1016.3
20260503224946 17 54 1.6 3.2 0.00 0.00 0.00 27 1016.2
20260503224443 17 66 0.0 3.2 0.00 0.00 0.00 27 1016.0
20260503223941 17 41 1.6 1.6 0.00 0.00 0.00 29 1016.2
20260503223439 17 20 3.2 3.2 0.00 0.00 0.00 26 1016.1
20260503222934 17 93 3.2 3.2 0.00 0.00 0.00 28 1016.2
20260503222433 18 148 0.0 1.6 0.00 0.00 0.00 25 1016.3
20260503221931 18 247 4.8 6.4 0.00 0.00 0.00 27 1016.2
20260503221429 17 30 0.0 4.8 0.00 0.00 0.00 29 1016.3
20260503220925 18 138 1.6 3.2 0.00 0.00 0.00 27 1016.4
20260503220421 18 256 0.0 1.6 0.00 0.00 0.00 31 1016.5
20260503215919 18 300 1.6 3.2 0.00 0.00 0.00 28 1016.3
20260503215416 18 74 1.6 4.8 0.00 0.00 0.00 27 1016.5
20260503214913 18 42 1.6 1.6 0.00 0.00 0.00 26 1016.3
20260503214410 18 48 3.2 3.2 0.00 0.00 0.00 25 1016.4
20260503213908 18 56 1.6 9.7 0.00 0.00 0.00 28 1016.4
20260503213406 18 283 1.6 6.4 0.00 0.00 0.00 27 1016.3
20260503212902 18 243 4.8 4.8 0.00 0.00 0.00 27 1016.5
20260503212400 18 240 11.3 12.9 0.00 0.00 0.00 28 1016.4
20260503211857 18 227 0.0 4.8 0.00 0.00 0.00 27 1016.5
20260503211354 18 248 1.6 6.4 0.00 0.00 0.00 30 1016.4
20260503210848 17 60 1.6 3.2 0.00 0.00 0.00 27 1016.6
20260503210346 18 274 3.2 6.4 0.00 0.00 0.00 26 1016.6
20260503205841 17 318 4.8 6.4 0.00 0.00 0.00 32 1016.6
20260503205338 17 332 1.6 11.3 0.00 0.00 0.00 30 1017.1